This is the latest recevied weather packets stored in our database for station/object W0AVQ. If no packets are shown the sender has not sent any weather packets the latest 10 day(s).
| Time | Temp. | Humidity | Pressure | Rain* | Wind** | Luminosity | Snow |
|---|---|---|---|---|---|---|---|
| 1777645978 | 13.89° C | 48% | 1019.9 hPa | 0 mm | - | 74 W/m² | - |
| 1777645675 | 13.89° C | 47% | 1019.7 hPa | 0 mm | - | 72 W/m² | - |
| 1777645371 | 13.89° C | 50% | 1019.7 hPa | 0 mm | - | 69 W/m² | - |
| 1777645066 | 13.89° C | 54% | 1019.6 hPa | 0 mm | - | 66 W/m² | - |
| 1777644764 | 13.89° C | 55% | 1019.6 hPa | 0 mm | - | 63 W/m² | - |
| 1777644461 | 13.89° C | 55% | 1019.7 hPa | 0 mm | - | 63 W/m² | - |
| 1777644157 | 13.89° C | 55% | 1019.3 hPa | 0 mm | - | 59 W/m² | - |
| 1777643853 | 13.89° C | 57% | 1019.4 hPa | 0 mm | - | 59 W/m² | - |
| 1777643551 | 13.33° C | 58% | 1019.6 hPa | 0 mm | - | 57 W/m² | - |
| 1777643248 | 13.89° C | 58% | 1019.4 hPa | 0 mm | - | 56 W/m² | - |
| 1777642945 | 13.89° C | 61% | 1019.2 hPa | 0 mm | - | 55 W/m² | - |
| 1777642641 | 13.33° C | 61% | 1019.5 hPa | 0 mm | - | 55 W/m² | - |
| 1777642338 | 12.78° C | 66% | 1019.4 hPa | 0 mm | - | 54 W/m² | - |
| 1777642035 | 12.78° C | 65% | 1019.4 hPa | 0 mm | - | 53 W/m² | - |
| 1777641730 | 12.78° C | 65% | 1019.6 hPa | 0 mm | - | 52 W/m² | - |
| 1777641426 | 13.33° C | 66% | 1019.3 hPa | 0 mm | - | 51 W/m² | - |
| 1777641122 | 12.78° C | 68% | 1019.3 hPa | 0 mm | - | 50 W/m² | - |
| 1777640817 | 12.22° C | 70% | 1019.1 hPa | 0 mm | - | 49 W/m² | - |
| 1777640514 | 12.78° C | 72% | 1019.2 hPa | 0 mm | - | 49 W/m² | - |
| 1777640211 | 12.78° C | 77% | 1019.3 hPa | 0 mm | - | 48 W/m² | - |
| 1777639908 | 12.22° C | 78% | 1019.5 hPa | 0 mm | - | 47 W/m² | - |
| 1777639605 | 12.22° C | 78% | 1019.5 hPa | 0 mm | - | 46 W/m² | - |
| 1777639302 | 12.22° C | 81% | 1019.2 hPa | 0 mm | - | 44 W/m² | - |
| 1777638998 | 11.67° C | 83% | 1019.2 hPa | 0 mm | - | 42 W/m² | - |
| 1777638694 | 12.22° C | 85% | 1019.2 hPa | 0 mm | - | 41 W/m² | - |
* Rain latest hour (hover to see other rain measurements)
** Current wind speed in m/s (hover to see current wind gust speed)